Time,TemperatureF,DewpointF,PressureIn,WindDirection,WindDirectionDegrees,WindSpeedMPH,WindSpeedGustMPH,Humidity,HourlyPrecipIn,Conditions,Clouds,dailyrainin,SolarRadiationWatts/m^2,SoftwareType,DateUTC
2013-08-16 00:00:00,65.7,57.9,30.03,NNE,22,1.0,6.0,76,0.00,CLR,CLR,0.00,0.0,WeatherDisplay:10.37,2013-08-16 05:00:00,
2013-08-16 00:10:00,65.7,58.0,30.03,NNE,19,1.0,4.0,76,0.00,CLR,CLR,0.00,0.0,WeatherDisplay:10.37,2013-08-16 05:10:00,
2013-08-16 00:20:00,65.8,58.0,30.03,NNE,20,1.0,4.0,76,0.00,CLR,CLR,0.00,0.0,WeatherDisplay:10.37,2013-08-16 05:20:00,
2013-08-16 00:30:00,65.7,57.9,30.02,NNE,28,1.0,3.0,76,0.00,CLR,CLR,0.00,0.0,WeatherDisplay:10.37,2013-08-16 05:30:00,
2013-08-16 00:40:00,65.6,57.8,30.02,North,1,1.0,3.0,76,0.00,CLR,CLR,0.00,0.0,WeatherDisplay:10.37,2013-08-16 05:40:00,
2013-08-16 00:50:00,65.4,58.0,30.02,North,4,2.0,4.0,77,0.00,CLR,CLR,0.00,0.0,WeatherDisplay:10.37,2013-08-16 05:50:00,
2013-08-16 01:00:00,65.1,58.1,30.02,North,6,2.0,4.0,78,0.00,CLR,CLR,0.00,0.0,WeatherDisplay:10.37,2013-08-16 06:00:00,
2013-08-16 01:10:00,64.9,58.2,30.02,NNE,23,1.0,3.0,79,0.00,CLR,CLR,0.00,0.0,WeatherDisplay:10.37,2013-08-16 06:10:00,
2013-08-16 01:20:00,64.8,58.1,30.01,NE,36,3.0,5.0,79,0.00,CLR,CLR,0.00,0.0,WeatherDisplay:10.37,2013-08-16 06:20:00,
2013-08-16 01:30:00,64.4,58.1,30.00,NE,40,3.0,7.0,80,0.00,BKN,BKN,0.00,0.0,WeatherDisplay:10.37,2013-08-16 06:30:00,
2013-08-16 01:40:00,63.9,58.0,30.00,NE,35,1.0,7.0,81,0.00,BKN,BKN,0.00,0.0,WeatherDisplay:10.37,2013-08-16 06:40:00,
2013-08-16 01:50:00,63.7,57.8,29.99,NE,42,1.0,5.0,81,0.00,BKN,BKN,0.00,0.0,WeatherDisplay:10.37,2013-08-16 06:50:00,
2013-08-16 02:00:00,63.6,57.7,29.99,NE,42,2.0,5.0,81,0.00,BKN,BKN,0.00,0.0,WeatherDisplay:10.37,2013-08-16 07:00:00,
2013-08-16 02:10:00,63.5,57.6,29.99,NE,35,3.0,6.0,81,0.00,BKN,BKN,0.00,0.0,WeatherDisplay:10.37,2013-08-16 07:10:00,
2013-08-16 02:20:00,63.4,57.8,29.99,NNE,33,2.0,6.0,82,0.00,BKN,BKN,0.00,0.0,WeatherDisplay:10.37,2013-08-16 07:20:00,
2013-08-16 02:30:00,63.2,57.6,29.99,NNE,18,2.0,7.0,82,0.00,BKN,BKN,0.00,0.0,WeatherDisplay:10.37,2013-08-16 07:30:00,
2013-08-16 02:40:00,63.1,57.9,30.00,NNE,17,2.0,5.0,83,0.00,BKN,BKN,0.00,0.0,WeatherDisplay:10.37,2013-08-16 07:40:00,
2013-08-16 02:50:00,63.1,57.9,30.00,North,354,1.0,4.0,83,0.00,OVC,OVC,0.00,0.0,WeatherDisplay:10.37,2013-08-16 07:50:00,
2013-08-16 03:00:00,63.2,57.9,30.00,NNW,348,2.0,4.0,83,0.00,OVC,OVC,0.00,0.0,WeatherDisplay:10.37,2013-08-16 08:00:00,
2013-08-16 03:10:00,63.0,57.8,30.00,North,9,2.0,5.0,83,0.00,OVC,OVC,0.00,0.0,WeatherDisplay:10.37,2013-08-16 08:10:00,
2013-08-16 03:20:00,62.7,57.8,30.00,NNE,19,3.0,6.0,84,0.00,OVC,OVC,0.00,0.0,WeatherDisplay:10.37,2013-08-16 08:20:00,
2013-08-16 03:30:00,62.6,57.7,30.00,NNE,14,2.0,7.0,84,0.00,OVC,OVC,0.00,0.0,WeatherDisplay:10.37,2013-08-16 08:30:00,
2013-08-16 03:40:00,62.5,57.6,30.00,North,10,1.0,5.0,84,0.00,OVC,OVC,0.00,0.0,WeatherDisplay:10.37,2013-08-16 08:40:00,
2013-08-16 03:50:00,62.5,57.9,30.00,North,9,3.0,6.0,85,0.00,BKN,BKN,0.00,0.0,WeatherDisplay:10.37,2013-08-16 08:50:00,
2013-08-16 04:00:00,62.6,58.0,30.00,NNE,14,2.0,5.0,85,0.00,BKN,BKN,0.00,0.0,WeatherDisplay:10.37,2013-08-16 09:00:00,
2013-08-16 04:10:00,62.5,57.9,30.00,North,1,2.0,6.0,85,0.00,FEW,FEW,0.00,0.0,WeatherDisplay:10.37,2013-08-16 09:10:00,
2013-08-16 04:20:00,62.4,57.8,30.00,NNE,16,3.0,6.0,85,0.00,FEW,FEW,0.00,0.0,WeatherDisplay:10.37,2013-08-16 09:20:00,
2013-08-16 04:30:00,62.2,58.0,30.00,NNE,26,3.0,8.0,86,0.00,FEW,FEW,0.00,0.0,WeatherDisplay:10.37,2013-08-16 09:30:00,
2013-08-16 04:40:00,62.1,57.8,30.00,NE,35,3.0,7.0,86,0.00,FEW,FEW,0.00,0.0,WeatherDisplay:10.37,2013-08-16 09:40:00,
2013-08-16 04:50:00,62.1,57.9,30.00,NNE,32,5.0,7.0,86,0.00,FEW,FEW,0.00,0.0,WeatherDisplay:10.37,2013-08-16 09:50:00,
2013-08-16 05:00:00,62.2,58.0,30.00,NNE,14,2.0,8.0,86,0.00,FEW,FEW,0.00,0.0,WeatherDisplay:10.37,2013-08-16 10:00:00,
2013-08-16 05:10:00,62.2,58.0,30.00,North,5,3.0,6.0,86,0.00,CLR,CLR,0.00,0.0,WeatherDisplay:10.37,2013-08-16 10:10:00,
2013-08-16 05:20:00,62.1,57.8,30.00,NNE,14,2.0,6.0,86,0.00,CLR,CLR,0.00,0.0,WeatherDisplay:10.37,2013-08-16 10:20:00,
2013-08-16 05:30:00,61.9,58.0,30.00,NNE,33,3.0,5.0,87,0.00,BKN,BKN,0.00,0.0,WeatherDisplay:10.37,2013-08-16 10:30:00,
2013-08-16 05:40:00,61.6,57.7,30.00,NNE,29,3.0,9.0,87,0.00,BKN,BKN,0.00,0.0,WeatherDisplay:10.37,2013-08-16 10:40:00,
2013-08-16 05:50:00,61.3,57.7,30.00,NNE,15,2.0,7.0,88,0.00,SCT,SCT,0.00,0.0,WeatherDisplay:10.37,2013-08-16 10:50:00,
2013-08-16 06:00:00,61.2,57.6,30.01,NNE,18,1.0,4.0,88,0.00,SCT,SCT,0.00,0.0,WeatherDisplay:10.37,2013-08-16 11:00:00,
2013-08-16 06:10:00,61.0,57.4,30.01,NNE,28,0.0,5.0,88,0.00,FEW,FEW,0.00,0.0,WeatherDisplay:10.37,2013-08-16 11:10:00,
2013-08-16 06:20:00,60.9,57.6,30.02,NNE,13,1.0,3.0,89,0.00,FEW,FEW,0.00,0.0,WeatherDisplay:10.37,2013-08-16 11:20:00,
2013-08-16 06:30:00,61.0,57.4,30.02,North,10,2.0,4.0,88,0.00,CLR,CLR,0.00,0.0,WeatherDisplay:10.37,2013-08-16 11:30:00,
2013-08-16 06:40:00,61.2,57.6,30.03,NNE,23,3.0,6.0,88,0.00,CLR,CLR,0.00,0.0,WeatherDisplay:10.37,2013-08-16 11:40:00,
2013-08-16 06:50:00,61.5,57.9,30.03,NNE,26,2.0,6.0,88,0.00,FEW,FEW,0.00,0.0,WeatherDisplay:10.37,2013-08-16 11:50:00,
2013-08-16 07:00:00,61.7,58.1,30.03,NNE,29,5.0,8.0,88,0.00,FEW,FEW,0.00,0.0,WeatherDisplay:10.37,2013-08-16 12:00:00,
2013-08-16 07:10:00,62.0,58.1,30.03,NE,34,3.0,7.0,87,0.00,BKN,BKN,0.00,0.0,WeatherDisplay:10.37,2013-08-16 12:10:00,
2013-08-16 07:20:00,62.4,58.1,30.03,NE,35,5.0,10.0,86,0.00,BKN,BKN,0.00,0.0,WeatherDisplay:10.37,2013-08-16 12:20:00,
2013-08-16 07:30:00,62.4,58.2,30.02,NE,37,3.0,10.0,86,0.00,OVC,OVC,0.00,0.0,WeatherDisplay:10.37,2013-08-16 12:30:00,
2013-08-16 07:40:00,62.5,58.6,30.03,NE,34,3.0,8.0,87,0.00,OVC,OVC,0.00,0.0,WeatherDisplay:10.37,2013-08-16 12:40:00,
2013-08-16 07:50:00,62.9,58.7,30.02,NE,46,2.0,8.0,86,0.00,OVC,OVC,0.00,0.0,WeatherDisplay:10.37,2013-08-16 12:50:00,
2013-08-16 08:00:00,63.6,59.3,30.01,NE,48,5.0,9.0,86,0.00,OVC,OVC,0.00,0.0,WeatherDisplay:10.37,2013-08-16 13:00:00,
2013-08-16 08:10:00,64.7,59.7,30.02,NE,51,1.0,9.0,84,0.00,OVC,OVC,0.00,0.0,WeatherDisplay:10.37,2013-08-16 13:10:00,
2013-08-16 08:20:00,65.2,59.9,30.02,ENE,63,3.0,6.0,83,0.00,OVC,OVC,0.00,0.0,WeatherDisplay:10.37,2013-08-16 13:20:00,
2013-08-16 08:30:00,65.4,60.1,30.02,NE,46,2.0,8.0,83,0.00,BKN,BKN,0.00,0.0,WeatherDisplay:10.37,2013-08-16 13:30:00,
2013-08-16 08:40:00,66.5,60.8,30.02,NE,44,3.0,7.0,82,0.00,BKN,BKN,0.00,0.0,WeatherDisplay:10.37,2013-08-16 13:40:00,
2013-08-16 08:50:00,66.4,60.4,30.03,NE,48,2.0,5.0,81,0.00,BKN,BKN,0.00,0.0,WeatherDisplay:10.37,2013-08-16 13:50:00,
2013-08-16 09:00:00,66.5,60.5,30.03,ENE,64,2.0,6.0,81,0.00,BKN,BKN,0.00,0.0,WeatherDisplay:10.37,2013-08-16 14:00:00,
2013-08-16 09:10:00,66.7,61.1,30.03,ENE,77,2.0,5.0,82,0.00,OVC,OVC,0.00,0.0,WeatherDisplay:10.37,2013-08-16 14:10:00,
2013-08-16 09:20:00,67.1,61.1,30.03,ENE,71,2.0,5.0,81,0.00,OVC,OVC,0.00,0.0,WeatherDisplay:10.37,2013-08-16 14:20:00,
2013-08-16 09:30:00,67.5,61.5,30.03,NE,49,2.0,4.0,81,0.00,OVC,OVC,0.00,0.0,WeatherDisplay:10.37,2013-08-16 14:30:00,
2013-08-16 09:40:00,68.0,62.3,30.03,NE,52,1.0,4.0,82,0.00,OVC,OVC,0.00,0.0,WeatherDisplay:10.37,2013-08-16 14:40:00,
2013-08-16 09:50:00,68.8,62.4,30.04,NNE,20,1.0,3.0,80,0.00,OVC,OVC,0.00,0.0,WeatherDisplay:10.37,2013-08-16 14:50:00,
2013-08-16 10:00:00,69.8,63.0,30.04,ENE,62,2.0,5.0,79,0.00,OVC,OVC,0.00,0.0,WeatherDisplay:10.37,2013-08-16 15:00:00,
2013-08-16 10:10:00,70.5,63.6,30.04,East,80,1.0,4.0,79,0.00,OVC,OVC,0.00,0.0,WeatherDisplay:10.37,2013-08-16 15:10:00,
2013-08-16 10:20:00,70.7,63.5,30.03,NE,54,1.0,4.0,78,0.00,OVC,OVC,0.00,0.0,WeatherDisplay:10.37,2013-08-16 15:20:00,
2013-08-16 10:30:00,70.8,64.0,30.04,NE,45,0.0,5.0,79,0.00,OVC,OVC,0.00,0.0,WeatherDisplay:10.37,2013-08-16 15:30:00,
2013-08-16 10:40:00,71.6,64.4,30.04,ENE,57,2.0,4.0,78,0.00,OVC,OVC,0.00,0.0,WeatherDisplay:10.37,2013-08-16 15:40:00,
2013-08-16 10:50:00,72.3,64.7,30.04,East,80,0.0,3.0,77,0.00,OVC,OVC,0.00,0.0,WeatherDisplay:10.37,2013-08-16 15:50:00,
2013-08-16 11:00:00,72.3,65.0,30.04,ENE,72,0.0,4.0,78,0.00,OVC,OVC,0.00,0.0,WeatherDisplay:10.37,2013-08-16 16:00:00,
2013-08-16 11:10:00,71.9,64.7,30.04,ESE,118,1.0,3.0,78,0.00,BKN,BKN,0.00,0.0,WeatherDisplay:10.37,2013-08-16 16:10:00,
2013-08-16 11:20:00,72.6,65.3,30.04,East,90,2.0,5.0,78,0.00,BKN,BKN,0.00,0.0,WeatherDisplay:10.37,2013-08-16 16:20:00,
2013-08-16 11:30:00,72.9,65.3,30.04,ENE,68,2.0,4.0,77,0.00,BKN,BKN,0.00,0.0,WeatherDisplay:10.37,2013-08-16 16:30:00,
2013-08-16 11:40:00,72.4,65.5,30.04,NE,47,1.0,5.0,79,0.00,BKN,BKN,0.00,0.0,WeatherDisplay:10.37,2013-08-16 16:40:00,
2013-08-16 11:50:00,72.8,65.9,30.04,ENE,73,1.0,4.0,79,0.00,SCT,SCT,0.00,0.0,WeatherDisplay:10.37,2013-08-16 16:50:00,
2013-08-16 12:00:00,72.7,65.8,30.04,East,90,1.0,3.0,79,0.00,SCT,SCT,0.00,0.0,WeatherDisplay:10.37,2013-08-16 17:00:00,
2013-08-16 12:10:00,72.7,66.1,30.04,South,169,1.0,3.0,80,0.00,BKN,BKN,0.00,0.0,WeatherDisplay:10.37,2013-08-16 17:10:00,
2013-08-16 12:20:00,72.9,66.4,30.04,South,175,0.0,3.0,80,0.00,BKN,BKN,0.00,0.0,WeatherDisplay:10.37,2013-08-16 17:20:00,
2013-08-16 12:30:00,74.0,67.1,30.04,SW,231,1.0,3.0,79,0.00,OVC,OVC,0.00,0.0,WeatherDisplay:10.37,2013-08-16 17:30:00,
2013-08-16 12:40:00,73.3,66.0,30.04,NE,35,2.0,5.0,78,0.00,OVC,OVC,0.00,0.0,WeatherDisplay:10.37,2013-08-16 17:40:00,
2013-08-16 12:50:00,73.8,66.5,30.04,NE,46,2.0,5.0,78,0.00,OVC,OVC,0.00,0.0,WeatherDisplay:10.37,2013-08-16 17:50:00,
2013-08-16 13:00:00,73.9,66.6,30.04,NE,34,2.0,6.0,78,0.00,OVC,OVC,0.00,0.0,WeatherDisplay:10.37,2013-08-16 18:00:00,
2013-08-16 13:10:00,74.2,66.9,30.03,NNE,29,3.0,8.0,78,0.00,OVC,OVC,0.00,0.0,WeatherDisplay:10.37,2013-08-16 18:10:00,
2013-08-16 13:20:00,74.6,66.9,30.03,North,3,2.0,8.0,77,0.00,OVC,OVC,0.00,0.0,WeatherDisplay:10.37,2013-08-16 18:20:00,
2013-08-16 13:30:00,74.4,66.7,30.04,North,359,1.0,7.0,77,0.00,BKN,BKN,0.00,0.0,WeatherDisplay:10.37,2013-08-16 18:30:00,
2013-08-16 13:40:00,74.8,67.1,30.03,NNE,30,5.0,8.0,77,0.00,BKN,BKN,0.00,0.0,WeatherDisplay:10.37,2013-08-16 18:40:00,
2013-08-16 13:50:00,75.0,67.3,30.03,NNE,26,2.0,7.0,77,0.00,BKN,BKN,0.00,0.0,WeatherDisplay:10.37,2013-08-16 18:50:00,
2013-08-16 14:00:00,75.4,67.3,30.03,NE,45,2.0,5.0,76,0.00,BKN,BKN,0.00,0.0,WeatherDisplay:10.37,2013-08-16 19:00:00,
2013-08-16 14:10:00,76.0,67.9,30.03,East,91,2.0,5.0,76,0.00,BKN,BKN,0.00,0.0,WeatherDisplay:10.37,2013-08-16 19:10:00,
2013-08-16 14:20:00,75.9,68.2,30.03,ENE,72,3.0,7.0,77,0.00,BKN,BKN,0.00,0.0,WeatherDisplay:10.37,2013-08-16 19:20:00,
2013-08-16 14:30:00,75.7,68.7,30.02,East,84,2.0,5.0,79,0.00,BKN,BKN,0.00,0.0,WeatherDisplay:10.37,2013-08-16 19:30:00,
2013-08-16 14:40:00,74.8,68.6,30.02,ENE,70,2.0,7.0,81,0.00,BKN,BKN,0.00,0.0,WeatherDisplay:10.37,2013-08-16 19:40:00,
2013-08-16 14:50:00,75.0,67.7,30.02,ENE,64,2.0,6.0,78,0.00,BKN,BKN,0.00,0.0,WeatherDisplay:10.37,2013-08-16 19:50:00,
2013-08-16 15:00:00,74.8,67.8,30.01,NE,48,5.0,9.0,79,0.00,BKN,BKN,0.00,0.0,WeatherDisplay:10.37,2013-08-16 20:00:00,
2013-08-16 15:10:00,75.5,68.6,30.01,ENE,60,1.0,7.0,79,0.00,FEW,FEW,0.00,0.0,WeatherDisplay:10.37,2013-08-16 20:10:00,
2013-08-16 15:20:00,75.6,67.9,30.01,NE,44,3.0,10.0,77,0.00,FEW,FEW,0.00,0.0,WeatherDisplay:10.37,2013-08-16 20:20:00,
2013-08-16 15:30:00,76.0,68.3,30.00,NE,46,1.0,9.0,77,0.00,FEW,FEW,0.00,0.0,WeatherDisplay:10.37,2013-08-16 20:30:00,
2013-08-16 15:40:00,76.3,68.2,30.00,NE,42,3.0,7.0,76,0.00,FEW,FEW,0.00,0.0,WeatherDisplay:10.37,2013-08-16 20:40:00,
2013-08-16 15:50:00,76.2,67.7,30.01,NE,56,3.0,8.0,75,0.00,FEW,FEW,0.00,0.0,WeatherDisplay:10.37,2013-08-16 20:50:00,
2013-08-16 16:00:00,76.6,67.7,30.00,NE,43,5.0,10.0,74,0.00,FEW,FEW,0.00,0.0,WeatherDisplay:10.37,2013-08-16 21:00:00,
2013-08-16 16:10:00,77.0,67.7,30.00,NE,53,5.0,8.0,73,0.00,FEW,FEW,0.00,0.0,WeatherDisplay:10.37,2013-08-16 21:10:00,
2013-08-16 16:20:00,77.3,67.9,30.00,NE,56,2.0,8.0,73,0.00,FEW,FEW,0.00,0.0,WeatherDisplay:10.37,2013-08-16 21:20:00,
2013-08-16 16:30:00,77.6,67.9,30.00,NE,43,3.0,6.0,72,0.00,FEW,FEW,0.00,0.0,WeatherDisplay:10.37,2013-08-16 21:30:00,
2013-08-16 16:40:00,77.3,68.0,30.00,ENE,67,2.0,7.0,73,0.00,BKN,BKN,0.00,0.0,WeatherDisplay:10.37,2013-08-16 21:40:00,
2013-08-16 16:50:00,77.0,67.7,30.00,NE,52,3.0,8.0,73,0.00,SCT,SCT,0.00,0.0,WeatherDisplay:10.37,2013-08-16 21:50:00,
2013-08-16 17:00:00,76.5,67.2,30.00,NE,37,6.0,10.0,73,0.00,SCT,SCT,0.00,0.0,WeatherDisplay:10.37,2013-08-16 22:00:00,
2013-08-16 17:10:00,76.4,67.1,30.00,NNE,30,3.0,8.0,73,0.00,SCT,SCT,0.00,0.0,WeatherDisplay:10.37,2013-08-16 22:10:00,
2013-08-16 17:20:00,76.4,67.1,30.01,NE,36,6.0,10.0,73,0.00,SCT,SCT,0.00,0.0,WeatherDisplay:10.37,2013-08-16 22:20:00,
2013-08-16 17:30:00,76.4,67.1,30.01,NE,39,5.0,8.0,73,0.00,SCT,SCT,0.00,0.0,WeatherDisplay:10.37,2013-08-16 22:30:00,
2013-08-16 17:40:00,76.2,67.3,30.01,NE,37,3.0,7.0,74,0.00,BKN,BKN,0.00,0.0,WeatherDisplay:10.37,2013-08-16 22:40:00,
2013-08-16 17:50:00,76.2,67.3,30.01,NE,38,3.0,8.0,74,0.00,SCT,SCT,0.00,0.0,WeatherDisplay:10.37,2013-08-16 22:50:00,
2013-08-16 18:00:00,75.9,67.4,30.01,NE,44,3.0,9.0,75,0.00,SCT,SCT,0.00,0.0,WeatherDisplay:10.37,2013-08-16 23:00:00,
2013-08-16 18:10:00,75.8,67.7,30.01,NNE,33,3.0,6.0,76,0.00,SCT,SCT,0.00,0.0,WeatherDisplay:10.37,2013-08-16 23:10:00,
2013-08-16 18:20:00,75.6,67.5,30.01,NE,43,2.0,7.0,76,0.00,SCT,SCT,0.00,0.0,WeatherDisplay:10.37,2013-08-16 23:20:00,
2013-08-16 18:30:00,75.4,67.3,30.01,NE,45,3.0,6.0,76,0.00,SCT,SCT,0.00,0.0,WeatherDisplay:10.37,2013-08-16 23:30:00,
2013-08-16 18:40:00,75.4,67.3,30.01,NE,44,2.0,4.0,76,0.00,SCT,SCT,0.00,0.0,WeatherDisplay:10.37,2013-08-16 23:40:00,
2013-08-16 18:50:00,75.2,67.1,30.01,NE,37,1.0,5.0,76,0.00,SCT,SCT,0.00,0.0,WeatherDisplay:10.37,2013-08-16 23:50:00,
2013-08-16 19:00:00,75.0,67.3,30.02,NNE,33,2.0,6.0,77,0.00,BKN,BKN,0.00,0.0,WeatherDisplay:10.37,2013-08-17 00:00:00,
2013-08-16 19:10:00,74.8,67.1,30.02,NE,40,2.0,6.0,77,0.00,BKN,BKN,0.00,0.0,WeatherDisplay:10.37,2013-08-17 00:10:00,
2013-08-16 19:20:00,74.6,67.3,30.02,NE,44,2.0,5.0,78,0.00,BKN,BKN,0.00,0.0,WeatherDisplay:10.37,2013-08-17 00:20:00,
2013-08-16 19:30:00,74.3,67.4,30.02,NNE,15,2.0,4.0,79,0.00,BKN,BKN,0.00,0.0,WeatherDisplay:10.37,2013-08-17 00:30:00,
2013-08-16 19:40:00,73.9,67.3,30.02,NNE,19,3.0,7.0,80,0.00,BKN,BKN,0.00,0.0,WeatherDisplay:10.37,2013-08-17 00:40:00,
2013-08-16 19:50:00,73.6,67.0,30.03,NNE,32,1.0,5.0,80,0.00,FEW,FEW,0.00,0.0,WeatherDisplay:10.37,2013-08-17 00:50:00,
2013-08-16 20:00:00,73.4,67.2,30.02,NE,38,1.0,5.0,81,0.00,FEW,FEW,0.00,0.0,WeatherDisplay:10.37,2013-08-17 01:00:00,
2013-08-16 20:10:00,73.1,66.9,30.02,NNE,25,2.0,5.0,81,0.00,BKN,BKN,0.00,0.0,WeatherDisplay:10.37,2013-08-17 01:10:00,
2013-08-16 20:20:00,72.9,66.7,30.03,NNE,13,1.0,6.0,81,0.00,BKN,BKN,0.00,0.0,WeatherDisplay:10.37,2013-08-17 01:20:00,
2013-08-16 20:30:00,72.7,66.9,30.03,NNE,21,2.0,5.0,82,0.00,OVC,OVC,0.00,0.0,WeatherDisplay:10.37,2013-08-17 01:30:00,
2013-08-16 20:40:00,72.4,66.9,30.03,NNE,14,3.0,5.0,83,0.00,OVC,OVC,0.00,0.0,WeatherDisplay:10.37,2013-08-17 01:40:00,
2013-08-16 20:50:00,72.2,66.4,30.04,NNE,22,3.0,6.0,82,0.00,OVC,OVC,0.00,0.0,WeatherDisplay:10.37,2013-08-17 01:50:00,
2013-08-16 21:00:00,72.2,66.4,30.04,NNE,25,2.0,6.0,82,0.00,OVC,OVC,0.00,0.0,WeatherDisplay:10.37,2013-08-17 02:00:00,
2013-08-16 21:10:00,72.1,65.9,30.04,NNE,31,3.0,6.0,81,0.00,OVC,OVC,0.00,0.0,WeatherDisplay:10.37,2013-08-17 02:10:00,
2013-08-16 21:20:00,72.0,65.5,30.05,NE,44,3.0,6.0,80,0.00,OVC,OVC,0.00,0.0,WeatherDisplay:10.37,2013-08-17 02:20:00,
2013-08-16 21:30:00,71.8,65.7,30.05,NE,38,2.0,4.0,81,0.00,OVC,OVC,0.00,0.0,WeatherDisplay:10.37,2013-08-17 02:30:00,
2013-08-16 21:40:00,71.6,65.5,30.05,NE,36,2.0,6.0,81,0.00,OVC,OVC,0.00,0.0,WeatherDisplay:10.37,2013-08-17 02:40:00,
2013-08-16 21:50:00,71.4,65.3,30.05,NNE,25,2.0,4.0,81,0.00,OVC,OVC,0.00,0.0,WeatherDisplay:10.37,2013-08-17 02:50:00,
2013-08-16 22:00:00,71.2,65.1,30.05,NE,35,2.0,5.0,81,0.00,OVC,OVC,0.00,0.0,WeatherDisplay:10.37,2013-08-17 03:00:00,
2013-08-16 22:10:00,71.0,64.9,30.05,NNE,31,2.0,5.0,81,0.00,OVC,OVC,0.00,0.0,WeatherDisplay:10.37,2013-08-17 03:10:00,
2013-08-16 22:20:00,70.7,64.9,30.05,NE,43,1.0,4.0,82,0.00,OVC,OVC,0.00,0.0,WeatherDisplay:10.37,2013-08-17 03:20:00,
2013-08-16 22:30:00,70.5,64.7,30.05,NE,37,3.0,6.0,82,0.00,OVC,OVC,0.00,0.0,WeatherDisplay:10.37,2013-08-17 03:30:00,
2013-08-16 22:40:00,70.4,64.6,30.05,NE,40,2.0,6.0,82,0.00,OVC,OVC,0.00,0.0,WeatherDisplay:10.37,2013-08-17 03:40:00,
2013-08-16 22:50:00,70.4,64.6,30.05,NE,38,3.0,5.0,82,0.00,OVC,OVC,0.00,0.0,WeatherDisplay:10.37,2013-08-17 03:50:00,
2013-08-16 23:00:00,70.3,64.5,30.05,NE,39,1.0,6.0,82,0.00,OVC,OVC,0.00,0.0,WeatherDisplay:10.37,2013-08-17 04:00:00,
2013-08-16 23:10:00,70.2,64.4,30.05,NE,47,1.0,5.0,82,0.00,OVC,OVC,0.00,0.0,WeatherDisplay:10.37,2013-08-17 04:10:00,
2013-08-16 23:20:00,70.1,64.3,30.05,NE,36,3.0,6.0,82,0.00,OVC,OVC,0.00,0.0,WeatherDisplay:10.37,2013-08-17 04:20:00,
2013-08-16 23:30:00,70.0,64.2,30.05,NE,37,1.0,5.0,82,0.00,OVC,OVC,0.00,0.0,WeatherDisplay:10.37,2013-08-17 04:30:00,
2013-08-16 23:40:00,70.0,64.2,30.05,NE,43,2.0,4.0,82,0.00,OVC,OVC,0.00,0.0,WeatherDisplay:10.37,2013-08-17 04:40:00,
2013-08-16 23:50:00,69.9,64.1,30.05,NE,41,2.0,4.0,82,0.00,OVC,OVC,0.00,0.0,WeatherDisplay:10.37,2013-08-17 04:50:00,